Location: Staunton
(38.1490°N, 79.0720°W)
Time: 14:27:14
(UTC-04:00)

ISS - Pass Details

Date: 26 May 2017
Orbit: 402 x 408 km, 51.6° (Epoch: 29 May)

Event Time Altitude Azimuth Distance (km) Brightness Sun altitude
Rises 02:01:28 0° 319° (NW) 2,330 0.5 -29.6°
Reaches altitude 10° 02:04:55 10° 358° (N) 1,465 -0.2 -29.5°
Maximum altitude 02:05:55 11° 16° (NNE) 1,403 -0.2 -29.4°
Drops below altitude 10° 02:06:55 10° 33° (NNE) 1,463 -0.2 -29.4°
Sets 02:10:20 0° 72° (ENE) 2,319 0.4 -29.2°
